DECAYED

CZ-4 DEB, 35325 (Decayed)

Orbit data source: Space-Track

CZ-4 DEB, 35325 was space debris in SSO originally from a launch on Thu, 14 Oct 1999 UTC launched from the Taiyaun Space Center, China (TSC). Debris objects in space refer to the collection of defunct objects orbiting the Earth. Examples of debris include non-operational satellites, rocket bodies, and fragments generated from explosions, collisions, or faulty payload assembly.

Not visible in the next 10 days
Identifier
35325, 1999-057SD
Orbit
Decayed
Country
Flag of CNCN / PRC
Related business
Manufacturer
Unknown
Mission
Decayed spacecraft
Bus & Motor
Unknown
Mass
Unknown
Launch date (UTC)
1999-10-14 (26 years ago)
Launch vehicle
Unknown
Launch site
Taiyaun Space Center, China (TSC)
Object type
Payload
Rocket body
Debris
Shape & HBR
Unknown
Radar Cross Section
Small (<0.1 m²)

Expand to show TLE details & history
Last TLE update: 5 months ago

TLE from 5 months ago
0 CZ-4 DEB
1 35325U 99057SD  25103.66206015  .00914187  00000-0  57725-2 0  9993
2 35325  98.4152 254.1248 0016153 272.9313  87.0100 15.73960056638924
Epoch: 2025-04-13T15:53Z
TLE epoch observation values (Epoch: 2025-04-13T15:53:21.996Z)
Latitude
-0.00001°
Longitude
173.69499°
Altitude
350.174 km
Speed
7.699 km/s
True Right ascension
16h 56m 29s
True Declination
0° 00' 00"
Sunlit
Object was in full shadow at epoch
Visualization orbit readout
Latitude
Unknown
Longitude
Unknown
Altitude
Unknown
Speed
Unknown
Apparent Right ascension
Unknown
Apparent Declination
Unknown
Sunlit
N/A
Visualization observer readout
Local Sidereal Time
16:13:50
Azimuth
Unknown
Elevation
Unknown
Doppler factor
Unknown
Orbital elements
Apogee altitude
355.393 km
Perigee altitude
333.674 km
Semi-major axis
6,722.671 km
Eccentricity
0.00162
Inclination
98.4152°
RAAN
254.1248°
Arg. of periapsis
272.9313°
True anomaly
87.19487°
Mean anomaly
87.01°
Eccentric anomaly
87.10243°
Mean motion
3.93759 °/min
Orbital period
91.43 mins
BSTAR
0.0057725
Loading maneuver chart data...
Computing Atmospheric mass density...
Loading historical data...
Loading historical data...
Loading historical data...
Loading historical data...
Loading historical data...
Loading historical data...
Loading historical data...

Documentation

Showing up to 5 results
|